When you browse on this site, cookies collect data to enhance your experience and personalize the content and advertising you see.
Visit our Privacy Policy to learn more. By continuing to use the site, you agree to this use of cookies and data.
  • En España
  • Lista de países
  • Para 7 días
  • Temperatura del agua
  • Mapa Satelital
  • El tiempo en el mapa
  • Informadores
  • user-avatar
    Iniciar sesión

    Tiempo cada hora Chervoni Luky

    Hoy, 23 Mayo, Jueves

    Tiempo Temperatura Precipitaciones Viento Presión Humedad
    00:00 +15°C° 0 mm 1 mps 746 mmHg 93%
    01:00 +14°C° 0 mm 1 mps 746 mmHg 94%
    02:00 +14°C° 0 mm 1 mps 746 mmHg 94%
    03:00 +14°C° 0 mm 1 mps 746 mmHg 95%
    04:00 +14°C° 0 mm 1 mps 746 mmHg 95%
    05:00 +14°C° 0 mm 1 mps 746 mmHg 96%
    06:00 +16°C° 0 mm 1 mps 746 mmHg 90%
    07:00 +18°C° 0 mm 1 mps 746 mmHg 84%
    08:00 +20°C° 0 mm 1 mps 746 mmHg 79%
    09:00 +21°C° 0 mm 1 mps 746 mmHg 73%
    10:00 +22°C° 0 mm 1 mps 746 mmHg 66%
    11:00 +24°C° 0 mm 1 mps 746 mmHg 60%
    12:00 +25°C° 0 mm 1 mps 746 mmHg 58%
    13:00 +25°C° 0 mm 1 mps 746 mmHg 55%
    14:00 +26°C° 0 mm 1 mps 746 mmHg 52%
    15:00 +24°C° 0 mm 0 mps 746 mmHg 52%
    16:00 +24°C° 0 mm 0 mps 745 mmHg 53%
    17:00 +24°C° 0 mm 0 mps 745 mmHg 53%
    18:00 +22°C° 0 mm 0 mps 745 mmHg 58%
    19:00 +20°C° 0 mm 0 mps 746 mmHg 64%
    20:00 +20°C° 0 mm 1 mps 746 mmHg 69%
    21:00 +19°C° 0.4 mm 1 mps 746 mmHg 74%
    22:00 +18°C° 0.4 mm 1 mps 746 mmHg 78%
    23:00 +18°C° 0.4 mm 1 mps 746 mmHg 82%

    Mañana, 24 Mayo, Viernes

    Tiempo Temperatura Precipitaciones Viento Presión Humedad
    00:00 +15°C° 0.5 mm 0 mps 746 mmHg 83%
    01:00 +15°C° 0.5 mm 0 mps 746 mmHg 84%
    02:00 +15°C° 0.5 mm 0 mps 746 mmHg 86%
    03:00 +15°C° 0 mm 0 mps 746 mmHg 85%
    04:00 +15°C° 0 mm 0 mps 746 mmHg 85%
    05:00 +16°C° 0 mm 0 mps 746 mmHg 85%
    06:00 +17°C° 0.1 mm 0 mps 747 mmHg 81%
    07:00 +19°C° 0.1 mm 0 mps 747 mmHg 76%
    08:00 +21°C° 0.1 mm 0 mps 747 mmHg 72%
    09:00 +24°C° 0.6 mm 1 mps 747 mmHg 66%
    10:00 +25°C° 0.6 mm 1 mps 747 mmHg 61%
    11:00 +26°C° 0.6 mm 2 mps 746 mmHg 55%
    12:00 +26°C° 0.1 mm 2 mps 746 mmHg 56%
    13:00 +26°C° 0.1 mm 3 mps 746 mmHg 57%
    14:00 +26°C° 0.1 mm 3 mps 746 mmHg 57%
    15:00 +26°C° 0.3 mm 3 mps 746 mmHg 61%
    16:00 +26°C° 0.3 mm 2 mps 745 mmHg 65%
    17:00 +25°C° 0.3 mm 2 mps 745 mmHg 68%
    18:00 +23°C° 0.5 mm 2 mps 745 mmHg 73%
    19:00 +21°C° 0.5 mm 2 mps 745 mmHg 78%
    20:00 +19°C° 0.5 mm 2 mps 745 mmHg 83%
    21:00 +18°C° 0.3 mm 2 mps 745 mmHg 84%
    22:00 +18°C° 0.3 mm 2 mps 745 mmHg 86%
    23:00 +17°C° 0.3 mm 2 mps 745 mmHg 87%

    Pasado mañana, 25 Mayo, Sábado

    Tiempo Temperatura Precipitaciones Viento Presión Humedad
    00:00 +17°C° 0 mm 2 mps 745 mmHg 88%
    01:00 +16°C° 0 mm 2 mps 745 mmHg 89%
    02:00 +16°C° 0 mm 2 mps 745 mmHg 89%
    03:00 +16°C° 0 mm 2 mps 745 mmHg 90%
    04:00 +16°C° 0 mm 2 mps 745 mmHg 90%
    05:00 +16°C° 0 mm 2 mps 745 mmHg 90%
    06:00 +17°C° 0 mm 2 mps 745 mmHg 86%
    07:00 +19°C° 0 mm 2 mps 745 mmHg 81%
    08:00 +21°C° 0 mm 2 mps 745 mmHg 76%
    09:00 +23°C° 0.1 mm 2 mps 744 mmHg 70%
    10:00 +24°C° 0.1 mm 2 mps 744 mmHg 64%
    11:00 +25°C° 0.1 mm 2 mps 744 mmHg 59%
    12:00 +26°C° 0.3 mm 3 mps 744 mmHg 59%
    13:00 +26°C° 0.3 mm 3 mps 743 mmHg 59%
    14:00 +26°C° 0.3 mm 3 mps 743 mmHg 59%
    15:00 +25°C° 0.9 mm 3 mps 743 mmHg 64%
    16:00 +25°C° 0.9 mm 3 mps 743 mmHg 68%
    17:00 +24°C° 0.9 mm 3 mps 743 mmHg 73%
    18:00 +23°C° 0.2 mm 2 mps 743 mmHg 77%
    19:00 +20°C° 0.2 mm 2 mps 743 mmHg 81%
    20:00 +19°C° 0.2 mm 2 mps 743 mmHg 85%
    21:00 +18°C° 0.1 mm 2 mps 743 mmHg 88%
    22:00 +17°C° 0.1 mm 3 mps 743 mmHg 90%
    23:00 +17°C° 0.1 mm 3 mps 743 mmHg 93%

    26 Mayo, Domingo

    Tiempo Temperatura Precipitaciones Viento Presión Humedad
    00:00 +17°C° 0 mm 3 mps 743 mmHg 93%
    01:00 +15°C° 0 mm 4 mps 743 mmHg 93%
    02:00 +15°C° 0 mm 4 mps 743 mmHg 94%
    03:00 +15°C° 0 mm 4 mps 743 mmHg 93%
    04:00 +14°C° 0 mm 4 mps 743 mmHg 93%
    05:00 +14°C° 0 mm 4 mps 744 mmHg 92%
    06:00 +15°C° 0 mm 4 mps 744 mmHg 88%
    07:00 +17°C° 0 mm 4 mps 744 mmHg 84%
    08:00 +18°C° 0 mm 4 mps 745 mmHg 80%
    09:00 +19°C° 0 mm 4 mps 745 mmHg 75%
    10:00 +20°C° 0 mm 4 mps 745 mmHg 70%
    11:00 +21°C° 0 mm 4 mps 745 mmHg 65%
    12:00 +22°C° 0.1 mm 5 mps 745 mmHg 62%
    13:00 +22°C° 0.1 mm 5 mps 745 mmHg 60%
    14:00 +22°C° 0.1 mm 5 mps 745 mmHg 57%
    15:00 +22°C° 0 mm 4 mps 745 mmHg 59%
    16:00 +22°C° 0 mm 4 mps 745 mmHg 62%
    17:00 +22°C° 0 mm 4 mps 744 mmHg 64%
    18:00 +20°C° 0 mm 4 mps 744 mmHg 68%
    19:00 +19°C° 0 mm 4 mps 744 mmHg 72%
    20:00 +17°C° 0 mm 4 mps 744 mmHg 75%
    21:00 +17°C° 0.2 mm 4 mps 745 mmHg 79%
    22:00 +15°C° 0.2 mm 4 mps 745 mmHg 83%
    23:00 +15°C° 0.2 mm 4 mps 745 mmHg 86%

    27 Mayo, Lunes

    Tiempo Temperatura Precipitaciones Viento Presión Humedad
    00:00 +14°C° 0.4 mm 4 mps 745 mmHg 88%
    01:00 +13°C° 0.4 mm 4 mps 745 mmHg 89%
    02:00 +11°C° 0.4 mm 4 mps 746 mmHg 90%
    03:00 +11°C° 0 mm 4 mps 746 mmHg 91%
    04:00 +10°C° 0 mm 4 mps 747 mmHg 92%
    05:00 +8°C° 0 mm 4 mps 747 mmHg 92%
    06:00 +9°C° 0 mm 5 mps 748 mmHg 86%
    07:00 +10°C° 0 mm 5 mps 748 mmHg 81%
    08:00 +11°C° 0 mm 6 mps 749 mmHg 75%
    09:00 +14°C° 0 mm 6 mps 749 mmHg 70%
    10:00 +15°C° 0 mm 6 mps 749 mmHg 65%
    11:00 +16°C° 0 mm 6 mps 750 mmHg 61%
    12:00 +16°C° 0 mm 5 mps 750 mmHg 61%
    13:00 +16°C° 0 mm 5 mps 750 mmHg 62%
    14:00 +16°C° 0 mm 5 mps 750 mmHg 62%
    15:00 +18°C° 0 mm 4 mps 750 mmHg 62%
    16:00 +18°C° 0 mm 4 mps 750 mmHg 62%
    17:00 +19°C° 0 mm 3 mps 750 mmHg 62%
    18:00 +17°C° 0 mm 3 mps 751 mmHg 67%
    19:00 +16°C° 0 mm 2 mps 751 mmHg 73%
    20:00 +14°C° 0 mm 2 mps 751 mmHg 79%
    21:00 +14°C° 0 mm 2 mps 751 mmHg 81%
    22:00 +13°C° 0 mm 2 mps 751 mmHg 82%
    23:00 +12°C° 0 mm 2 mps 751 mmHg 84%

    28 Mayo, Martes

    Tiempo Temperatura Precipitaciones Viento Presión Humedad
    00:00 +12°C° 0 mm 2 mps 752 mmHg 86%
    01:00 +12°C° 0 mm 2 mps 752 mmHg 89%
    02:00 +12°C° 0 mm 2 mps 752 mmHg 91%
    03:00 +12°C° 0 mm 2 mps 752 mmHg 90%
    04:00 +11°C° 0 mm 3 mps 752 mmHg 90%
    05:00 +11°C° 0 mm 3 mps 752 mmHg 90%
    06:00 +13°C° 0 mm 4 mps 751 mmHg 83%
    07:00 +15°C° 0 mm 4 mps 751 mmHg 77%
    08:00 +17°C° 0 mm 5 mps 751 mmHg 70%
    09:00 +19°C° 0 mm 6 mps 751 mmHg 70%
    10:00 +20°C° 0 mm 6 mps 750 mmHg 69%
    11:00 +21°C° 0 mm 6 mps 750 mmHg 68%
    12:00 +22°C° 0 mm 7 mps 750 mmHg 67%
    13:00 +23°C° 0 mm 8 mps 749 mmHg 65%
    14:00 +26°C° 0 mm 9 mps 748 mmHg 64%
    15:00 +26°C° 0 mm 8 mps 748 mmHg 66%
    16:00 +24°C° 0 mm 7 mps 748 mmHg 69%
    17:00 +24°C° 0 mm 6 mps 747 mmHg 71%
    18:00 +23°C° 0 mm 5 mps 747 mmHg 73%
    19:00 +23°C° 0 mm 5 mps 748 mmHg 75%
    20:00 +22°C° 0 mm 5 mps 748 mmHg 77%
    21:00 +22°C° 0 mm 5 mps 748 mmHg 73%
    22:00 +22°C° 0 mm 5 mps 748 mmHg 69%
    23:00 +22°C° 0 mm 6 mps 748 mmHg 65%
    Mostrar más